[Iaude] MPEC V187: 2023 VK6 [a=1.58,e=0.44,i=0.8,H=26.8]
    mpec at marsden.cfa.harvard.edu 
    mpec at marsden.cfa.harvard.edu
       
    Fri Nov 10 18:57:30 EST 2023
    
    
  
M.P.E.C. 2023-V187                            Issued 2023 November 10, 23:55 UT
     The Minor Planet Electronic Circulars contain information on unusual
         minor planets, routine data on comets and natural satellites,
         and occasional editorial announcements.  They are published
    on behalf of Division F of the International Astronomical Union by the
          Minor Planet Center, Smithsonian Astrophysical Observatory,
                          Cambridge, MA 02138, U.S.A.
			  
             Prepared using the Tamkin Foundation Computer Network
                              MPC at CFA.HARVARD.EDU
            URL https://www.minorplanetcenter.net/    ISSN 1523-6714
                                    2023 VK6                                    
Observations:
     K23V06K*1C2023 11 10.33646103 26 06.580-17 29 10.40               VEV187G96
     K23V06K 1C2023 11 10.34158503 26 09.760-17 26 14.50         19.50GVEV187G96
     K23V06K 1C2023 11 10.34672003 26 12.900-17 23 15.80         19.20GVEV187G96
     K23V06K mC2023 11 10.36839403 26 26.257-17 10 47.60         21.18GVEV187I52
     K23V06K mC2023 11 10.36864603 26 26.462-17 10 40.04         20.71GVEV187I52
     K23V06K mC2023 11 10.36890803 26 26.574-17 10 30.94         19.73GVEV187I52
     K23V06K mC2023 11 10.36915803 26 26.725-17 10 22.51         19.46GVEV187I52
     K23V06K KC2023 11 10.39832003 27 10.83 -16 45 37.7          19.7 GVEV187474
     K23V06K KC2023 11 10.39898803 27 11.22 -16 45 15.7          19.6 GVEV187474
     K23V06K KC2023 11 10.40032303 27 12.12 -16 44 31.2          19.7 GVEV187474
     K23V06K KC2023 11 10.40099203 27 12.56 -16 44 08.7          19.8 GVEV187474
     K23V06K KC2023 11 10.40153603 26 46.655-16 51 55.69         19.41GVEV187I52
     K23V06K KC2023 11 10.40229803 26 47.130-16 51 29.95         19.80GVEV187I52
     K23V06K KC2023 11 10.40305203 26 47.609-16 51 04.14         19.66GVEV187I52
     K23V06K KC2023 11 10.40381403 26 48.066-16 50 38.40         20.45GVEV187I52
     K23V06K KC2023 11 10.56515603 28 50.70 -15 15 25.1          19.6 GVEV187474
     K23V06K KC2023 11 10.56582403 28 51.11 -15 15 04.0          19.6 GVEV187474
     K23V06K KC2023 11 10.56649203 28 51.43 -15 14 43.6          20.2 GVEV187474
     K23V06K KC2023 11 10.56715803 28 51.88 -15 14 22.6          19.3 GVEV187474
     K23V06K KC2023 11 10.56782503 28 52.27 -15 14 01.1          19.6 GVEV187474
     K23V06K 1C2023 11 10.96978 03 33 05.82 -12 06 38.8          20.4 VXEV187033
     K23V06K 1C2023 11 10.97036 03 33 06.11 -12 06 22.6          20.1 VXEV187033
     K23V06K 1C2023 11 10.97093 03 33 06.36 -12 06 07.7          20.4 VXEV187033
Observer details:
033 Karl Schwarzschild Observatory, Tautenburg.  Observers S. Melnikov, C.
    Hogner, F. Ludwig, M. Hartmann, B. Stecklum.  Measurer B. Stecklum.
    1.34-m f/3 Schmidt + CCD.
474 Mount John Observatory, Lake Tekapo.  Observers A. C. Gilmore, P. M.
    Kilmartin.  Measurer P. M. Kilmartin.  1.0-m f/7.7 reflector + CCD.
G96 Mt. Lemmon Survey.  Observer J. B. Fazekas.  Measurers E. C. Beshore, D.
    Fay, J. B. Fazekas, D. C. Fuls, A. R. Gibbs, A. D. Grauer, H. Groeller, J.
    K. Hogan, R. A. Kowalski, S. M. Larson, G. J. Leonard, D. Rankin, R. L.
    Seaman, F. C. Shelly, K. W. Wierzchos.  1.5-m reflector + 10K CCD.
I52 Steward Observatory, Mt. Lemmon Station.  Observer H. Groeller.  Measurers
    E. C. Beshore, D. Fay, J. B. Fazekas, D. C. Fuls, A. R. Gibbs, A. D.
    Grauer, H. Groeller, J. K. Hogan, R. A. Kowalski, S. M. Larson, G. J.
    Leonard, D. Rankin, R. L. Seaman, F. C. Shelly, K. W. Wierzchos.  1.0-m
    prime focus + CCD.
Orbital elements:
2023 VK6                                                 Earth MOID = 0.0025 AU
Epoch 2023 Sept. 13.0 TT = JDT 2460200.5                Veres                   
M 351.36460              (2000.0)            P               Q                  
n   0.49516238     Peri.  244.43314     +0.99483526     +0.10060008             
a   1.5823563      Node   109.79072     -0.08721525     +0.91527410             
e   0.4402277      Incl.    0.82248     -0.05192594     +0.39006787             
P   1.99           H   26.88          G   0.15           U   7                  
Residuals in seconds of arc
231110 G96  0.1-  0.2+    231110 474  0.2-  0.1+    231110 474  0.0   0.2+
231110 G96 (0.1+  1.4-)   231110 474  0.2+  0.1+    231110 474  0.8-  0.5-
231110 G96  0.3-  0.3-    231110 474  0.2+  0.4+    231110 474  0.3+  0.6-
231110 I52  0.0   1.0+    231110 I52  0.0   0.1+    231110 474  0.4+  0.1-
231110 I52  0.7+  0.1-    231110 I52  0.1+  0.1-    231110 033  0.1-  0.1-
231110 I52  0.0   0.1+    231110 I52  0.3+  0.1+    231110 033  0.1+  0.4+
231110 I52  0.0   0.1-    231110 I52  0.1+  0.0     231110 033  0.1-  0.1-
231110 474  0.5+  0.3+    231110 474  0.4-  0.3+
Ephemeris:
2023 VK6                 a,e,i = 1.58, 0.44, 1                   q = 0.8858
Date    TT    R. A. (2000) Decl.     Delta      r    Elong.  Phase     V
2023 10 11    16 08 44.9 -25 21 14   0.1681  0.8949    48.0   123.9    27.9
...
2023 10 26    16 29 41.6 -31 59 48   0.07582 0.9373    39.8   137.2    27.6
...
2023 11 03    17 08 22.1 -48 38 12   0.03037 0.9717    46.8   131.9    25.1
...
2023 11 09    03 00 37.1 -34 10 51   0.01715 1.0017   129.2    50.1    19.9
2023 11 10    03 21 28.9 -20 51 28   0.02083 1.0070   141.8    37.5    20.0
2023 11 11    03 33 21.5 -11 48 19   0.02538 1.0123   150.0    29.3    20.2
...
2023 11 17    03 57 02.8 +08 11 40   0.05854 1.0461   167.1    12.2    21.5
...
2023 11 25    04 04 04.0 +14 38 53   0.1076  1.0943   174.0     5.4    22.7
...
2023 12 10    04 08 35.8 +18 26 37   0.2112  1.1910   166.1    11.4    24.6
M. P. C. Staff               (C) Copyright 2023 MPC           M.P.E.C. 2023-V187
    
    
More information about the Iaude
mailing list